{"data":{"norad_id":49166,"epoch":"2026-05-25T02:59:19.120704Z","epoch_age_seconds":71018,"freshness":"FRESH","line1":"1 49166U 21082AN  26145.12452686 -.00001258  00000+0 -99738-4 0  9998","line2":"2 49166  70.0006  82.7714 0003142 268.1078  91.9721 14.97522809259093","mean_motion":14.97522809,"eccentricity":0.0003142,"inclination_deg":70.0006,"raan_deg":82.7714,"arg_perigee_deg":268.1078,"mean_anomaly_deg":91.9721,"bstar":-9.9738e-5,"rev_number":25909,"period_min":96.15880248005,"perigee_km":572.3686484371,"apogee_km":576.73771894853,"semimajor_km":6952.6901836928,"source":"CELESTRAK","updated_at":"2026-05-25T13:38:16.791613Z"}}